User: anonymous   Login
Location: Unspecified
(0.0000°N, 0.0000°E)
Time: 04:35:52
(UTC+00:00)
Language:

STARLINK-31955 - Orbit

View from above orbital plane
View from above orbital plane
View from above satellite
View from above satellite

Ground track
Ground track

The orbit is defined by the following mean orbital elements,

1 59939U          26145.36637159 +.00000000 +00000-0 -15710-3 0 00004
2 59939  43.0001 259.1368 0000880 278.7599  81.3152 15.27600163    03
Epoch (UTC): 25 May 2026 08:47:34
Eccentricity: 0.0000880
inclination: 43.0001°
perigee height: 482 km
apogee height: 484 km
right ascension of ascending node: 259.1368°
argument of perigee: 278.7599°
revolutions per day: 15.27600163
mean anomaly at epoch: 81.3152°

The dashed part of the orbit path shows where the satellite is in the earth's shadow,  

DLR